• In Deutschland
  • Länderverzeichnis
  • Für 7 Tage
  • Wassertemperatur
  • Satellitenkarten
  • Wetterkarte
  • Widgets
  • user-avatar
    Anmelden

    Stündliche Wetter Sölden

    Heute, 29 Mai, Montag

    Zeit Temperatur Niederschläge Wind Luftdruck Luftfeuchtigkeit
    00:00 +2°C° 0,1 mm 0 m/S 584 mmHg 95%
    01:00 +2°C° 0,1 mm 0 m/S 584 mmHg 96%
    02:00 +1°C° 0 mm 0 m/S 583 mmHg 96%
    03:00 +1°C° 0 mm 0 m/S 583 mmHg 96%
    04:00 +1°C° 0 mm 0 m/S 583 mmHg 96%
    05:00 +4°C° 0 mm 0 m/S 584 mmHg 90%
    06:00 +7°C° 0 mm 0 m/S 586 mmHg 84%
    07:00 +9°C° 0 mm 0 m/S 587 mmHg 78%
    08:00 +11°C° 0 mm 0 m/S 588 mmHg 69%
    09:00 +14°C° 0 mm 1 m/S 588 mmHg 59%
    10:00 +16°C° 0 mm 1 m/S 589 mmHg 50%
    11:00 +16°C° 0 mm 1 m/S 589 mmHg 49%
    12:00 +18°C° 0 mm 1 m/S 589 mmHg 47%
    13:00 +18°C° 0 mm 2 m/S 589 mmHg 46%
    14:00 +17°C° 0,2 mm 2 m/S 588 mmHg 50%
    15:00 +16°C° 0,2 mm 2 m/S 588 mmHg 54%
    16:00 +16°C° 0,2 mm 2 m/S 587 mmHg 59%
    17:00 +14°C° 0,3 mm 1 m/S 587 mmHg 68%
    18:00 +13°C° 0,3 mm 1 m/S 586 mmHg 77%
    19:00 +11°C° 0,3 mm 1 m/S 585 mmHg 87%
    20:00 +9°C° 0,2 mm 1 m/S 585 mmHg 90%
    21:00 +7°C° 0,2 mm 1 m/S 584 mmHg 93%
    22:00 +5°C° 0,2 mm 0 m/S 583 mmHg 96%
    23:00 +4°C° 0,1 mm 0 m/S 583 mmHg 97%

    Morgen, 30 Mai, Dienstag

    Zeit Temperatur Niederschläge Wind Luftdruck Luftfeuchtigkeit
    00:00 +4°C° 0,1 mm 0 m/S 583 mmHg 97%
    01:00 +4°C° 0,1 mm 0 m/S 583 mmHg 97%
    02:00 +4°C° 0,1 mm 0 m/S 583 mmHg 97%
    03:00 +3°C° 0,1 mm 0 m/S 582 mmHg 97%
    04:00 +3°C° 0,1 mm 0 m/S 582 mmHg 97%
    05:00 +5°C° 0 mm 0 m/S 583 mmHg 92%
    06:00 +7°C° 0 mm 0 m/S 584 mmHg 87%
    07:00 +10°C° 0 mm 0 m/S 586 mmHg 82%
    08:00 +11°C° 0,2 mm 0 m/S 586 mmHg 76%
    09:00 +13°C° 0,2 mm 1 m/S 587 mmHg 70%
    10:00 +15°C° 0,2 mm 1 m/S 588 mmHg 64%
    11:00 +15°C° 0,4 mm 1 m/S 588 mmHg 64%
    12:00 +15°C° 0,4 mm 1 m/S 588 mmHg 64%
    13:00 +16°C° 0,4 mm 1 m/S 588 mmHg 64%
    14:00 +15°C° 0,6 mm 1 m/S 588 mmHg 66%
    15:00 +15°C° 0,6 mm 1 m/S 588 mmHg 68%
    16:00 +15°C° 0,6 mm 2 m/S 588 mmHg 69%
    17:00 +14°C° 0,8 mm 1 m/S 587 mmHg 76%
    18:00 +12°C° 0,8 mm 1 m/S 587 mmHg 82%
    19:00 +11°C° 0,8 mm 1 m/S 586 mmHg 89%
    20:00 +10°C° 0,9 mm 1 m/S 586 mmHg 92%
    21:00 +8°C° 0,9 mm 1 m/S 585 mmHg 94%
    22:00 +7°C° 0,9 mm 1 m/S 585 mmHg 97%
    23:00 +5°C° 0,2 mm 0 m/S 585 mmHg 97%

    übermorgen, 31 Mai, Mittwoch

    Zeit Temperatur Niederschläge Wind Luftdruck Luftfeuchtigkeit
    00:00 +5°C° 0,2 mm 0 m/S 585 mmHg 97%
    01:00 +4°C° 0,2 mm 0 m/S 584 mmHg 97%
    02:00 +4°C° 0 mm 0 m/S 584 mmHg 97%
    03:00 +4°C° 0 mm 0 m/S 584 mmHg 97%
    04:00 +3°C° 0 mm 0 m/S 584 mmHg 96%
    05:00 +5°C° 0 mm 0 m/S 585 mmHg 93%
    06:00 +7°C° 0 mm 0 m/S 586 mmHg 89%
    07:00 +9°C° 0 mm 0 m/S 587 mmHg 85%
    08:00 +11°C° 0 mm 0 m/S 588 mmHg 76%
    09:00 +13°C° 0 mm 1 m/S 589 mmHg 68%
    10:00 +15°C° 0 mm 1 m/S 589 mmHg 60%
    11:00 +15°C° 0,3 mm 1 m/S 589 mmHg 59%
    12:00 +16°C° 0,3 mm 1 m/S 589 mmHg 59%
    13:00 +16°C° 0,3 mm 2 m/S 589 mmHg 58%
    14:00 +15°C° 0,6 mm 2 m/S 589 mmHg 62%
    15:00 +15°C° 0,6 mm 2 m/S 589 mmHg 65%
    16:00 +14°C° 0,6 mm 2 m/S 588 mmHg 68%
    17:00 +13°C° 0,6 mm 1 m/S 588 mmHg 75%
    18:00 +12°C° 0,6 mm 1 m/S 587 mmHg 81%
    19:00 +11°C° 0,6 mm 1 m/S 587 mmHg 87%
    20:00 +9°C° 0,2 mm 1 m/S 586 mmHg 90%
    21:00 +7°C° 0,2 mm 1 m/S 585 mmHg 93%
    22:00 +4°C° 0,2 mm 0 m/S 585 mmHg 97%
    23:00 +4°C° 0 mm 0 m/S 584 mmHg 97%

    1 Juni, Donnerstag

    Zeit Temperatur Niederschläge Wind Luftdruck Luftfeuchtigkeit
    00:00 +4°C° 0 mm 0 m/S 584 mmHg 97%
    01:00 +3°C° 0 mm 0 m/S 584 mmHg 97%
    02:00 +4°C° 0 mm 1 m/S 584 mmHg 97%
    03:00 +4°C° 0 mm 1 m/S 583 mmHg 96%
    04:00 +3°C° 0 mm 1 m/S 583 mmHg 96%
    05:00 +4°C° 0 mm 0 m/S 584 mmHg 91%
    06:00 +6°C° 0 mm 0 m/S 585 mmHg 86%
    07:00 +8°C° 0 mm 0 m/S 586 mmHg 81%
    08:00 +10°C° 0 mm 0 m/S 587 mmHg 71%
    09:00 +12°C° 0 mm 1 m/S 588 mmHg 61%
    10:00 +14°C° 0 mm 1 m/S 589 mmHg 52%
    11:00 +14°C° 0,2 mm 1 m/S 589 mmHg 51%
    12:00 +15°C° 0,2 mm 1 m/S 589 mmHg 51%
    13:00 +15°C° 0,2 mm 2 m/S 589 mmHg 51%
    14:00 +15°C° 0,7 mm 2 m/S 589 mmHg 55%
    15:00 +14°C° 0,7 mm 2 m/S 588 mmHg 60%
    16:00 +13°C° 0,7 mm 2 m/S 588 mmHg 65%
    17:00 +12°C° 0,9 mm 2 m/S 587 mmHg 73%
    18:00 +11°C° 0,9 mm 1 m/S 587 mmHg 80%
    19:00 +10°C° 0,9 mm 1 m/S 586 mmHg 87%
    20:00 +8°C° 1,2 mm 1 m/S 586 mmHg 90%
    21:00 +6°C° 1,2 mm 0 m/S 585 mmHg 93%
    22:00 +5°C° 1,2 mm 0 m/S 585 mmHg 96%
    23:00 +5°C° 0,7 mm 0 m/S 585 mmHg 96%

    2 Juni, Freitag

    Zeit Temperatur Niederschläge Wind Luftdruck Luftfeuchtigkeit
    00:00 +6°C° 0,7 mm 1 m/S 585 mmHg 96%
    01:00 +6°C° 0,7 mm 1 m/S 585 mmHg 95%
    02:00 +5°C° 0,1 mm 1 m/S 584 mmHg 95%
    03:00 +3°C° 0,1 mm 0 m/S 584 mmHg 95%
    04:00 +3°C° 0,1 mm 0 m/S 583 mmHg 95%
    05:00 +4°C° 0 mm 0 m/S 584 mmHg 91%
    06:00 +6°C° 0 mm 0 m/S 585 mmHg 87%
    07:00 +8°C° 0 mm 0 m/S 587 mmHg 83%
    08:00 +10°C° 0 mm 0 m/S 587 mmHg 75%
    09:00 +12°C° 0 mm 0 m/S 588 mmHg 66%
    10:00 +14°C° 0 mm 1 m/S 589 mmHg 58%
    11:00 +14°C° 0,4 mm 1 m/S 589 mmHg 59%
    12:00 +15°C° 0,4 mm 1 m/S 589 mmHg 59%
    13:00 +15°C° 0,4 mm 1 m/S 588 mmHg 60%
    14:00 +15°C° 0,7 mm 1 m/S 588 mmHg 63%
    15:00 +14°C° 0,7 mm 1 m/S 588 mmHg 65%
    16:00 +14°C° 0,7 mm 2 m/S 588 mmHg 68%
    17:00 +13°C° 0,5 mm 1 m/S 587 mmHg 75%
    18:00 +12°C° 0,5 mm 1 m/S 587 mmHg 81%
    19:00 +11°C° 0,5 mm 1 m/S 586 mmHg 88%
    20:00 +9°C° 0,2 mm 1 m/S 585 mmHg 91%
    21:00 +6°C° 0,2 mm 0 m/S 584 mmHg 94%
    22:00 +4°C° 0,2 mm 0 m/S 584 mmHg 97%
    23:00 +3°C° 0,1 mm 0 m/S 583 mmHg 97%

    3 Juni, Samstag

    Zeit Temperatur Niederschläge Wind Luftdruck Luftfeuchtigkeit
    00:00 +3°C° 0,1 mm 0 m/S 583 mmHg 97%
    01:00 +3°C° 0,1 mm 0 m/S 583 mmHg 97%
    02:00 +3°C° 0 mm 0 m/S 583 mmHg 97%
    03:00 +3°C° 0 mm 0 m/S 583 mmHg 97%
    04:00 +2°C° 0 mm 0 m/S 583 mmHg 97%
    05:00 +5°C° 0 mm 0 m/S 584 mmHg 92%
    06:00 +7°C° 0 mm 0 m/S 585 mmHg 88%
    07:00 +9°C° 0 mm 0 m/S 586 mmHg 83%
    08:00 +12°C° 0 mm 1 m/S 587 mmHg 74%
    09:00 +14°C° 0 mm 1 m/S 588 mmHg 65%
    10:00 +16°C° 0 mm 1 m/S 589 mmHg 55%
    11:00 +18°C° 0,2 mm 1 m/S 589 mmHg 54%
    12:00 +18°C° 0,2 mm 1 m/S 589 mmHg 53%
    13:00 +18°C° 0,2 mm 2 m/S 589 mmHg 52%
    14:00 +17°C° 0,5 mm 2 m/S 588 mmHg 56%
    15:00 +17°C° 0,5 mm 2 m/S 588 mmHg 60%
    16:00 +16°C° 0,5 mm 2 m/S 588 mmHg 65%
    17:00 +15°C° 0,4 mm 1 m/S 587 mmHg 72%
    18:00 +13°C° 0,4 mm 1 m/S 587 mmHg 80%
    19:00 +12°C° 0,4 mm 1 m/S 586 mmHg 87%
    20:00 +11°C° 0,1 mm 1 m/S 585 mmHg 90%
    21:00 +9°C° 0,1 mm 1 m/S 585 mmHg 94%
    22:00 +7°C° 0,1 mm 1 m/S 584 mmHg 97%
    23:00 +7°C° 0 mm 1 m/S 584 mmHg 97%
    Mehr zeigen